FW9090 Weather Reports


Display with metric or nautical units.
time (UTC)temp
F
wind
direction
speed
MPH
gust
MPH
rain 1hr
in
rain 24hr
in
rain mn
in
humidity
%
barometer
mb
20260901231031 71 186 5.0 12.0 0.00 0.00 0.00 52 1015.4
20260901230526 71 308 3.0 14.0 0.00 0.00 0.00 52 1015.4
20260901230050 72 266 5.0 14.0 0.00 0.00 0.00 52 1015.4
20260901225618 71 342 5.0 12.0 0.00 0.00 0.00 51 1015.4
20260901225028 71 317 5.0 13.0 0.00 0.00 0.00 51 1015.4
20260901224551 72 224 4.0 13.0 0.00 0.00 0.00 50 1015.5
20260901224026 72 248 5.0 13.0 0.00 0.00 0.00 49 1015.5
20260901223528 72 276 4.0 12.0 0.00 0.00 0.00 50 1015.5
20260901223051 72 308 4.0 12.0 0.00 0.00 0.00 51 1015.5
20260901222531 72 170 5.0 11.0 0.00 0.00 0.00 52 1015.5
20260901222032 72 308 3.0 11.0 0.00 0.00 0.00 52 1015.5
20260901221550 71 270 3.0 11.0 0.00 0.00 0.00 53 1015.5
20260901221028 71 277 4.0 11.0 0.00 0.00 0.00 53 1015.6
20260901220529 71 221 5.0 14.0 0.00 0.00 0.00 53 1015.6
20260901220048 71 188 5.0 17.0 0.00 0.00 0.00 54 1015.6
20260901215527 71 304 5.0 17.0 0.00 0.00 0.00 54 1015.7
20260901215027 71 249 5.0 13.0 0.00 0.00 0.00 54 1015.6
20260901214553 71 165 3.0 14.0 0.00 0.00 0.00 54 1015.8
20260901214031 71 301 5.0 14.0 0.00 0.00 0.00 55 1015.7
20260901213529 71 273 4.0 14.0 0.00 0.00 0.00 56 1015.8
20260901213051 71 242 6.0 14.0 0.00 0.00 0.00 55 1015.7
20260901212526 71 281 5.0 14.0 0.00 0.00 0.00 56 1015.7
20260901212032 72 259 6.0 14.0 0.00 0.00 0.00 55 1015.7
20260901211550 72 271 4.0 14.0 0.00 0.00 0.00 55 1015.6
20260901211028 72 309 5.0 14.0 0.00 0.00 0.00 53 1015.6
20260901210529 72 204 3.0 17.0 0.00 0.00 0.00 53 1015.6
20260901210101 71 264 6.0 17.0 0.00 0.00 0.00 51 1015.6
20260901205527 71 352 3.0 10.0 0.00 0.00 0.00 51 1015.6
20260901205033 71 292 3.0 13.0 0.00 0.00 0.00 51 1015.6
20260901204553 71 140 4.0 13.0 0.00 0.00 0.00 52 1015.6
20260901204028 71 225 4.0 10.0 0.00 0.00 0.00 53 1015.6
20260901203528 71 229 3.0 14.0 0.00 0.00 0.00 52 1015.7
20260901203047 71 258 4.0 14.0 0.00 0.00 0.00 53 1015.6
20260901202530 71 239 3.0 12.0 0.00 0.00 0.00 53 1015.8
20260901202027 71 321 3.0 12.0 0.00 0.00 0.00 52 1015.9
20260901201546 71 209 2.0 12.0 0.00 0.00 0.00 52 1015.9
20260901201028 70 217 2.0 12.0 0.00 0.00 0.00 52 1016.0
20260901200530 70 273 4.0 12.0 0.00 0.00 0.00 52 1016.0
20260901200053 69 0 3.0 11.0 0.00 0.00 0.00 53 1016.2
20260901195529 69 217 2.0 9.0 0.00 0.00 0.00 54 1016.3
20260901195029 69 282 2.0 9.0 0.00 0.00 0.00 54 1016.3
20260901194602 69 267 3.0 9.0 0.00 0.00 0.00 53 1016.2
20260901194033 69 296 5.0 10.0 0.00 0.00 0.00 54 1016.2
20260901193528 69 302 1.0 14.0 0.00 0.00 0.00 56 1016.2
20260901193047 69 237 3.0 14.0 0.00 0.00 0.00 57 1016.4
20260901192527 69 291 3.0 12.0 0.00 0.00 0.00 57 1016.3
20260901192027 68 266 3.0 11.0 0.00 0.00 0.00 58 1016.4
20260901191603 68 175 4.0 11.0 0.00 0.00 0.00 58 1016.3
20260901191029 68 336 3.0 10.0 0.00 0.00 0.00 58 1016.2
20260901190528 68 303 3.0 10.0 0.00 0.00 0.00 57 1016.3
20260901190115 68 304 4.0 10.0 0.00 0.00 0.00 58 1016.3
20260901185527 68 224 1.0 14.0 0.00 0.00 0.00 58 1016.3
20260901185028 67 202 3.0 14.0 0.00 0.00 0.00 58 1016.3
20260901184558 67 264 5.0 14.0 0.00 0.00 0.00 60 1016.4
20260901184026 67 257 2.0 9.0 0.00 0.00 0.00 61 1016.3
20260901183528 66 324 4.0 10.0 0.00 0.00 0.00 61 1016.3
20260901183059 66 313 3.0 10.0 0.00 0.00 0.00 61 1016.4
20260901182529 67 235 3.0 9.0 0.00 0.00 0.00 62 1016.4
20260901182030 67 251 3.0 11.0 0.00 0.00 0.00 63 1016.4
20260901181557 67 288 4.0 11.0 0.00 0.00 0.00 62 1016.3
20260901181028 68 190 2.0 10.0 0.00 0.00 0.00 62 1016.2
20260901180527 67 248 2.0 6.0 0.00 0.00 0.00 63 1016.3
20260901180051 67 118 1.0 7.0 0.00 0.00 0.00 63 1016.1
20260901175527 66 0 2.0 7.0 0.00 0.00 0.00 64 1016.2
20260901175028 66 267 3.0 10.0 0.00 0.00 0.00 65 1016.2
20260901174600 66 0 1.0 10.0 0.00 0.00 0.00 64 1016.1
20260901174029 66 213 4.0 10.0 0.00 0.00 0.00 64 1016.1
20260901173529 66 173 3.0 7.0 0.00 0.00 0.00 65 1015.9
20260901173054 66 213 2.0 8.0 0.00 0.00 0.00 66 1015.9
20260901172529 65 166 2.0 9.0 0.00 0.00 0.00 67 1015.9
20260901172028 65 270 1.0 9.0 0.00 0.00 0.00 67 1015.9
20260901171613 65 217 3.0 9.0 0.00 0.00 0.00 67 1015.9
20260901171028 65 276 4.0 9.0 0.00 0.00 0.00 67 1015.9
20260901170529 65 167 3.0 8.0 0.00 0.00 0.00 67 1015.8
20260901170058 65 188 2.0 7.0 0.00 0.00 0.00 65 1015.8
20260901165533 65 177 1.0 8.0 0.00 0.00 0.00 67 1015.8
20260901165030 65 297 3.0 8.0 0.00 0.00 0.00 67 1015.7
20260901164615 65 213 3.0 8.0 0.00 0.00 0.00 66 1015.7
20260901164028 64 229 0.0 8.0 0.00 0.00 0.00 68 1015.7
20260901163527 64 221 2.0 8.0 0.00 0.00 0.00 70 1015.7
20260901163115 64 306 1.0 8.0 0.00 0.00 0.00 71 1015.7
20260901162527 64 209 1.0 7.0 0.00 0.00 0.00 72 1015.8
20260901162026 64 239 2.0 7.0 0.00 0.00 0.00 72 1015.7
20260901161552 63 174 2.0 7.0 0.00 0.00 0.00 73 1015.7
20260901161030 63 0 2.0 6.0 0.00 0.00 0.00 74 1015.7
20260901160527 63 0 2.0 7.0 0.00 0.00 0.00 75 1015.7
20260901160100 63 291 2.0 7.0 0.00 0.00 0.00 75 1015.5
20260901155528 63 238 1.0 7.0 0.00 0.00 0.00 75 1015.5
20260901155028 63 213 0.0 6.0 0.00 0.00 0.00 76 1015.4
20260901154554 63 295 1.0 6.0 0.00 0.00 0.00 76 1015.3
20260901154029 63 238 2.0 10.0 0.00 0.00 0.00 76 1015.3
20260901153530 62 0 2.0 10.0 0.00 0.00 0.00 77 1015.3
20260901153059 62 214 4.0 10.0 0.00 0.00 0.00 77 1015.3
20260901152528 62 153 2.0 8.0 0.00 0.00 0.00 78 1015.3
20260901152028 62 281 2.0 8.0 0.00 0.00 0.00 78 1015.2
20260901151557 62 274 4.0 8.0 0.00 0.00 0.00 78 1015.1
20260901151029 62 181 2.0 8.0 0.00 0.00 0.00 78 1015.1
20260901150528 62 138 2.0 8.0 0.00 0.00 0.00 78 1015.0
20260901150055 62 200 2.0 7.0 0.00 0.00 0.00 78 1015.0
20260901145529 62 231 1.0 5.0 0.00 0.00 0.00 78 1015.0
20260901145027 62 253 2.0 7.0 0.00 0.00 0.00 78 1014.9
20260901144551 62 232 2.0 7.0 0.00 0.00 0.00 78 1014.9
20260901144034 62 0 1.0 5.0 0.00 0.00 0.00 79 1014.9
20260901143529 61 0 2.0 5.0 0.00 0.00 0.00 79 1014.7
20260901143047 61 0 1.0 5.0 0.00 0.00 0.00 79 1014.7
20260901142530 61 206 0.0 5.0 0.00 0.00 0.00 79 1014.6
20260901142028 61 209 1.0 5.0 0.00 0.00 0.00 79 1014.6
20260901141547 61 0 1.0 4.0 0.00 0.00 0.00 79 1014.5
20260901141027 61 197 1.0 5.0 0.00 0.00 0.00 79 1014.4
20260901140529 61 0 2.0 5.0 0.00 0.00 0.00 79 1014.3
20260901140100 61 0 2.0 5.0 0.00 0.00 0.00 79 1014.4
20260901135528 61 203 0.0 9.0 0.00 0.00 0.00 79 1014.3
20260901135031 61 223 2.0 9.0 0.00 0.00 0.00 79 1014.2
20260901134600 61 238 1.0 6.0 0.00 0.00 0.00 79 1014.3
20260901134028 61 207 1.0 7.0 0.00 0.00 0.00 79 1014.1
20260901133528 61 203 2.0 7.0 0.00 0.00 0.00 80 1014.2
20260901133101 61 221 1.0 5.0 0.00 0.00 0.00 80 1014.2
20260901132526 61 0 0.0 5.0 0.00 0.00 0.00 80 1014.2
20260901132033 61 169 0.0 5.0 0.00 0.00 0.00 80 1014.0
20260901131552 61 188 1.0 4.0 0.00 0.00 0.00 80 1014.1
20260901131030 61 218 0.0 4.0 0.00 0.00 0.00 80 1014.0
20260901130529 61 0 0.0 4.0 0.00 0.00 0.00 80 1014.0
20260901130053 61 219 0.0 4.0 0.00 0.00 0.00 80 1014.1
20260901125530 61 0 0.0 5.0 0.00 0.00 0.00 80 1014.1
20260901125029 61 235 2.0 5.0 0.00 0.00 0.00 80 1014.1
20260901124551 61 202 1.0 5.0 0.00 0.00 0.00 80 1013.9
20260901124026 61 0 1.0 5.0 0.00 0.00 0.00 80 1014.0
20260901123526 61 212 0.0 6.0 0.00 0.00 0.00 79 1013.9
20260901123050 61 0 1.0 7.0 0.00 0.00 0.00 79 1013.9
20260901122529 61 195 0.0 7.0 0.00 0.00 0.00 79 1013.7
20260901122029 61 174 2.0 6.0 0.00 0.00 0.00 79 1013.8
20260901121557 61 181 1.0 7.0 0.00 0.00 0.00 79 1013.6
20260901121029 61 219 1.0 7.0 0.00 0.00 0.00 79 1013.6
20260901120527 61 227 2.0 7.0 0.00 0.00 0.00 79 1013.6
20260901120054 61 217 1.0 7.0 0.00 0.00 0.00 78 1013.7
20260901115529 61 213 2.0 7.0 0.00 0.00 0.00 78 1013.6
20260901115029 61 188 2.0 7.0 0.00 0.00 0.00 78 1013.8
20260901114601 61 203 1.0 4.0 0.00 0.00 0.00 78 1013.8
20260901114029 61 178 1.0 4.0 0.00 0.00 0.00 78 1013.9
20260901113529 61 0 0.0 8.0 0.00 0.00 0.00 77 1013.9
20260901113103 61 0 3.0 8.0 0.00 0.00 0.00 77 1013.8
20260901112529 61 207 2.0 7.0 0.00 0.00 0.00 77 1013.8
20260901112029 61 217 1.0 9.0 0.00 0.00 0.00 77 1013.9
20260901111609 61 151 2.0 9.0 0.00 0.00 0.00 77 1014.0
20260901111030 61 226 4.0 9.0 0.00 0.00 0.00 76 1014.0
20260901110529 61 232 3.0 7.0 0.00 0.00 0.00 76 1013.9
20260901110055 61 217 1.0 5.0 0.00 0.00 0.00 75 1013.8
20260901105529 61 213 0.0 5.0 0.00 0.00 0.00 75 1013.8
20260901105033 61 0 1.0 9.0 0.00 0.00 0.00 75 1013.8
20260901104600 61 178 1.0 10.0 0.00 0.00 0.00 75 1013.6
20260901104030 61 178 3.0 10.0 0.00 0.00 0.00 75 1013.6
20260901103530 61 218 1.0 8.0 0.00 0.00 0.00 75 1013.5
20260901103057 61 181 3.0 8.0 0.00 0.00 0.00 75 1013.5
20260901102530 61 197 3.0 7.0 0.00 0.00 0.00 75 1013.6
20260901102026 61 238 2.0 8.0 0.00 0.00 0.00 75 1013.5
20260901101556 61 163 2.0 8.0 0.00 0.00 0.00 75 1013.6
20260901101029 61 0 1.0 5.0 0.00 0.00 0.00 75 1013.5
20260901100532 61 179 0.0 6.0 0.00 0.00 0.00 76 1013.5
20260901100055 61 233 1.0 6.0 0.00 0.00 0.00 76 1013.4
20260901095527 61 240 2.0 7.0 0.00 0.00 0.00 75 1013.4
20260901095027 61 201 3.0 8.0 0.00 0.00 0.00 75 1013.3
20260901094550 61 241 3.0 9.0 0.00 0.00 0.00 75 1013.6
20260901094027 61 211 3.0 9.0 0.00 0.00 0.00 75 1013.5
20260901093526 61 0 2.0 8.0 0.00 0.00 0.00 75 1013.7
20260901093058 61 189 2.0 7.0 0.00 0.00 0.00 75 1013.8
20260901092529 61 203 3.0 7.0 0.00 0.00 0.00 74 1013.8
20260901092028 61 211 2.0 8.0 0.00 0.00 0.00 74 1013.8
20260901091602 61 240 3.0 8.0 0.00 0.00 0.00 74 1013.8
20260901091030 61 205 2.0 10.0 0.00 0.00 0.00 74 1013.7
20260901090529 61 194 3.0 10.0 0.00 0.00 0.00 74 1013.8
20260901090055 61 219 0.0 6.0 0.00 0.00 0.00 74 1013.8
20260901085527 61 0 2.0 6.0 0.00 0.00 0.00 74 1013.8
20260901085031 61 222 0.0 5.0 0.00 0.00 0.00 74 1013.7
20260901084555 61 0 1.0 6.0 0.00 0.00 0.00 74 1013.6
20260901084029 61 192 1.0 11.0 0.00 0.00 0.00 74 1013.6
20260901083530 61 171 2.0 11.0 0.00 0.00 0.00 74 1013.6
20260901083052 61 198 2.0 8.0 0.00 0.00 0.00 74 1013.7
20260901082527 61 167 3.0 8.0 0.00 0.00 0.00 74 1013.6
20260901082032 61 193 3.0 7.0 0.00 0.00 0.00 74 1013.7
20260901081554 61 150 2.0 7.0 0.00 0.00 0.00 74 1013.7
20260901081029 60 196 1.0 7.0 0.00 0.00 0.00 75 1013.7
20260901080528 60 0 2.0 7.0 0.00 0.00 0.00 75 1013.7
20260901080108 60 0 0.0 6.0 0.00 0.00 0.00 75 1013.6
20260901075527 60 205 0.0 6.0 0.00 0.00 0.00 75 1013.6
20260901075028 60 222 1.0 6.0 0.00 0.00 0.00 75 1013.6
20260901074551 60 181 1.0 10.0 0.00 0.00 0.00 74 1013.5
20260901074027 60 215 1.0 10.0 0.00 0.00 0.00 74 1013.5
20260901073527 60 198 3.0 10.0 0.00 0.00 0.00 74 1013.5
20260901073046 60 198 1.0 6.0 0.00 0.00 0.00 74 1013.5
20260901072528 60 161 1.0 8.0 0.00 0.00 0.00 74 1013.5
20260901072029 60 0 3.0 8.0 0.00 0.00 0.00 74 1013.6
20260901071601 60 169 4.0 10.0 0.00 0.00 0.00 74 1013.6
20260901071027 60 208 3.0 10.0 0.00 0.00 0.00 74 1013.6
20260901070528 60 196 2.0 9.0 0.00 0.00 0.00 74 1013.6
20260901070059 60 0 1.0 12.0 0.00 0.00 0.00 74 1013.7
20260901065529 60 221 4.0 12.0 0.00 0.00 0.00 73 1013.6
20260901065027 60 255 2.0 9.0 0.00 0.00 0.00 74 1013.7
20260901064605 60 0 2.0 10.0 0.00 0.00 0.00 74 1013.7
20260901064029 60 197 4.0 10.0 0.00 0.00 0.00 74 1013.7
20260901063529 60 217 3.0 8.0 0.00 0.00 0.00 74 1013.7
20260901063112 60 219 1.0 8.0 0.00 0.00 0.00 74 1013.7
20260901062532 60 249 1.0 8.0 0.00 0.00 0.00 74 1013.7
20260901062029 60 195 2.0 8.0 0.00 0.00 0.00 74 1013.8
20260901061555 60 112 1.0 8.0 0.00 0.00 0.00 75 1013.8
20260901061029 60 0 2.0 10.0 0.00 0.00 0.00 75 1013.9
20260901060533 61 186 3.0 12.0 0.00 0.00 0.00 75 1013.8
20260901060059 61 204 5.0 12.0 0.00 0.00 0.00 75 1013.9
20260901055528 60 193 1.0 14.0 0.00 0.00 0.00 75 1014.0
20260901055027 61 195 4.0 16.0 0.00 0.00 0.00 74 1013.9
20260901054552 60 205 4.0 16.0 0.00 0.00 0.00 74 1014.0
20260901054030 60 192 2.0 13.0 0.00 0.00 0.00 75 1014.0
20260901053529 60 210 4.0 13.0 0.00 0.00 0.00 75 1013.8
20260901053100 60 207 2.0 7.0 0.00 0.00 0.00 74 1013.7
20260901052527 60 202 2.0 6.0 0.00 0.00 0.00 75 1013.8
20260901052029 60 219 1.0 6.0 0.00 0.00 0.00 75 1013.9
20260901051600 60 193 2.0 10.0 0.00 0.00 0.00 75 1013.8
20260901051027 60 259 2.0 10.0 0.00 0.00 0.00 74 1013.9
20260901050529 60 224 3.0 10.0 0.00 0.00 0.00 74 1013.7
20260901050055 60 213 1.0 8.0 0.00 0.00 0.00 74 1013.7
20260901045526 60 231 1.0 10.0 0.00 0.00 0.00 74 1013.8
20260901045029 60 215 1.0 10.0 0.00 0.00 0.00 74 1013.8
20260901044551 60 203 2.0 10.0 0.00 0.00 0.00 74 1013.7
20260901044034 60 207 2.0 10.0 0.00 0.00 0.00 74 1013.7
20260901043529 60 190 3.0 10.0 0.00 0.00 0.00 74 1013.7
20260901043052 60 215 1.0 8.0 0.00 0.00 0.00 74 1013.8
20260901042527 60 202 2.0 9.0 0.00 0.00 0.00 74 1013.7
20260901042027 61 0 2.0 9.0 0.00 0.00 0.00 74 1013.6
20260901041549 61 244 3.0 9.0 0.00 0.00 0.00 74 1013.8
20260901041027 61 273 3.0 9.0 0.00 0.00 0.00 74 1013.7
20260901040526 61 225 4.0 9.0 0.00 0.00 0.00 74 1013.6
20260901035526 61 279 1.0 6.0 0.00 0.00 0.00 75 1013.5
20260901035026 61 264 2.0 6.0 0.00 0.00 0.00 74 1013.4
20260901034554 61 0 1.0 8.0 0.00 0.00 0.00 74 1013.4
20260901034029 61 190 2.0 8.0 0.00 0.00 0.00 74 1013.3
20260901033528 61 268 2.0 9.0 0.00 0.00 0.00 74 1013.2
20260901033048 61 257 4.0 10.0 0.00 0.00 0.00 74 1013.2
20260901032527 61 294 3.0 12.0 0.00 0.00 0.00 74 1013.1
20260901032027 61 217 3.0 12.0 0.00 0.00 0.00 74 1013.1
20260901031550 61 188 5.0 13.0 0.00 0.00 0.00 74 1013.0
20260901031027 61 216 3.0 13.0 0.00 0.00 0.00 74 1012.9
20260901030529 61 0 3.0 10.0 0.00 0.00 0.00 74 1012.9
20260901030055 61 181 2.0 9.0 0.00 0.00 0.00 74 1012.9
20260901025531 61 252 3.0 9.0 0.00 0.00 0.00 74 1012.9
20260901025032 61 261 3.0 11.0 0.00 0.00 0.00 74 1012.9
20260901024554 61 0 4.0 11.0 0.00 0.00 0.00 74 1012.9
20260901024031 61 0 2.0 15.0 0.00 0.00 0.00 74 1013.0
20260901023528 61 169 3.0 15.0 0.00 0.00 0.00 74 1012.8
20260901023055 61 247 3.0 11.0 0.00 0.00 0.00 73 1012.8
20260901022528 62 0 3.0 11.0 0.00 0.00 0.00 73 1012.9
20260901022029 62 234 3.0 11.0 0.00 0.00 0.00 73 1012.8
20260901021553 62 350 2.0 12.0 0.00 0.00 0.00 73 1012.8
20260901021028 62 196 4.0 15.0 0.00 0.00 0.00 73 1012.8
20260901020529 62 321 6.0 17.0 0.00 0.00 0.00 73 1012.8
20260901020051 62 241 3.0 17.0 0.00 0.00 0.00 73 1012.7
20260901015528 62 213 5.0 12.0 0.00 0.00 0.00 72 1012.7
20260901015031 62 188 5.0 11.0 0.00 0.00 0.00 72 1012.8
20260901014549 63 273 5.0 12.0 0.00 0.00 0.00 72 1012.9
20260901014027 63 178 3.0 15.0 0.00 0.00 0.00 72 1012.9
20260901013530 63 256 4.0 15.0 0.00 0.00 0.00 72 1012.9
20260901013103 63 234 7.0 14.0 0.00 0.00 0.00 71 1012.8
20260901012527 63 221 4.0 13.0 0.00 0.00 0.00 71 1012.8
20260901012029 63 178 4.0 15.0 0.00 0.00 0.00 71 1012.7
20260901011552 63 225 7.0 15.0 0.00 0.00 0.00 71 1012.7
20260901011027 63 192 5.0 15.0 0.00 0.00 0.00 71 1012.7
20260901010530 64 221 5.0 14.0 0.00 0.00 0.00 71 1012.7
20260901010055 64 182 4.0 14.0 0.00 0.00 0.00 71 1012.7
20260901005527 64 219 5.0 14.0 0.00 0.00 0.00 70 1012.7
20260901005028 64 241 4.0 16.0 0.00 0.00 0.00 70 1012.6
20260901004602 65 235 3.0 16.0 0.00 0.00 0.00 69 1012.7
20260901004029 65 294 4.0 15.0 0.00 0.00 0.00 68 1012.6
20260901003529 66 281 4.0 12.0 0.00 0.00 0.00 67 1012.6
20260901003101 66 226 3.0 13.0 0.00 0.00 0.00 68 1012.5
20260901002528 66 279 5.0 13.0 0.00 0.00 0.00 67 1012.4
20260901002031 66 244 5.0 11.0 0.00 0.00 0.00 68 1012.4
20260901001552 65 264 4.0 15.0 0.00 0.00 0.00 69 1012.4
20260901001028 65 249 5.0 14.0 0.00 0.00 0.00 69 1012.5
20260901000529 65 219 5.0 14.0 0.00 0.00 0.00 69 1012.6
20260901000049 66 0 5.0 14.0 0.00 0.00 0.00 69 1012.4
20260831235529 66 303 6.0 14.0 0.00 0.00 0.00 69 1012.7
20260831235032 66 188 6.0 17.0 0.00 0.00 0.00 69 1012.9
20260831234559 66 271 5.0 17.0 0.00 0.00 0.00 70 1013.0
20260831234029 65 241 5.0 17.0 0.00 0.00 0.00 70 1012.8
20260831233527 65 202 9.0 17.0 0.00 0.00 0.00 70 1012.9
20260831233052 65 215 7.0 14.0 0.00 0.00 0.00 69 1012.7
20260831232528 66 225 5.0 13.0 0.00 0.00 0.00 70 1012.7
20260831232029 66 207 5.0 14.0 0.00 0.00 0.00 69 1012.9
20260831231607 66 225 5.0 14.0 0.00 0.00 0.00 69 1013.0